Theta_e
287 287 287 286 286 286 286 285 285 285 284 284 283 283 283 283 283 283 282 282 283 283 283 283 283 283 283 283 283 283 283 283 283 283 283 283 283 283 282 282 282 282
287 287 287 287 286 286 286 286 285 285 284 284 284 283 283 283 283 283 282 282 283 283 283 283 283 283 283 283 283 283 283 283 283 283 283 282 282 282 281 281 281 281
287 287 287 287 287 287 287 286 286 286 285 285 284 284 284 283 283 283 283 283 283 283 283 283 283 283 283 283 283 283 283 282 282 282 282 281 281 281 280 280 280 280
287 287 287 287 287 287 287 287 287 286 286 286 285 285 285 284 284 283 283 283 282 282 282 282 283 283 283 283 283 282 282 282 282 282 281 281 280 280 280 280 279 279
287 287 287 287 287 287 287 287 287 287 287 286 286 285 285 284 283 283 283 282 282 282 282 282 282 282 282 282 282 282 282 282 282 282 281 281 280 280 280 280 279 279
287 287 287 287 287 287 287 287 287 287 286 286 286 285 284 284 283 282 282 282 282 282 282 282 282 282 282 282 282 282 282 282 282 282 281 281 280 280 280 279 279 278
287 287 287 287 287 287 287 287 287 286 286 285 285 284 284 283 282 282 282 281 281 281 282 282 282 282 282 282 282 282 282 281 281 281 280 280 280 279 279 278 278 277
287 287 287 287 287 287 287 287 286 285 285 284 284 284 283 282 282 282 281 281 281 281 281 281 281 281 281 281 281 281 281 280 280 280 279 279 279 278 278 277 277 277
287 287 287 287 287 287 286 286 285 285 284 284 283 283 283 282 282 281 281 281 281 281 281 281 281 280 280 280 280 280 280 279 279 279 278 278 277 277 277 276 276 276
287 287 287 287 286 286 286 285 285 284 284 284 283 283 283 282 282 281 281 281 281 280 280 280 280 280 280 280 279 279 279 278 278 278 278 277 276 276 276 276 275 275
287 287 286 286 286 286 285 285 284 284 284 284 284 283 282 282 281 281 281 280 280 280 280 280 280 279 279 279 279 279 278 278 278 278 277 276 276 275 275 275 275 275
286 286 286 286 285 285 285 284 284 284 284 284 283 282 282 281 281 280 280 280 280 280 279 279 279 279 279 279 278 278 278 278 278 277 276 275 275 275 275 275 275 274
286 286 286 286 285 285 284 284 284 284 284 284 283 282 281 280 280 280 280 279 279 279 279 279 279 278 278 278 278 277 277 277 276 275 275 275 274 274 274 274 274 274
286 286 286 285 285 285 284 284 284 284 284 283 282 281 281 280 280 279 279 279 279 279 279 278 278 278 278 277 277 277 276 275 274 274 274 274 274 274 274 274 274 274
286 286 285 285 285 284 284 284 284 284 284 283 282 281 280 280 279 279 279 279 278 278 278 278 278 277 277 276 276 276 275 274 273 273 273 273 274 274 274 274 274 273
286 285 285 285 285 284 284 284 284 284 283 283 282 281 280 279 279 279 278 278 278 278 277 278 277 277 277 276 275 275 274 273 273 273 273 273 273 273 274 274 273 273
285 285 285 285 284 284 284 284 284 284 284 283 282 281 280 279 278 278 278 278 277 277 277 277 277 276 276 276 275 275 274 272 273 273 273 273 273 273 274 273 272 272
285 285 285 285 284 284 284 284 284 284 283 283 282 280 279 279 278 278 278 277 277 277 277 277 276 276 276 275 275 275 274 272 272 273 273 273 273 273 273 272 271 271
285 285 285 285 284 284 284 284 284 284 283 283 281 280 279 278 278 277 277 277 277 276 276 276 276 275 275 275 275 275 274 272 272 273 273 272 273 272 271 271 270 270
285 285 285 285 284 284 284 283 283 283 283 282 281 279 278 278 277 277 277 277 276 276 276 276 276 275 275 275 274 274 273 272 272 273 272 271 271 271 271 271 270 270
286 285 285 284 284 284 283 283 283 282 282 281 280 279 278 277 277 277 276 276 276 276 275 275 275 275 274 274 274 273 273 271 271 271 271 270 271 270 271 270 270 270
286 285 285 284 284 283 283 283 282 281 281 280 279 278 278 277 277 276 276 276 276 275 275 275 275 274 274 274 273 273 272 271 271 270 270 270 270 270 270 270 270 271
286 285 284 284 283 283 283 282 281 280 280 279 279 278 277 277 276 276 276 275 275 275 274 275 275 274 274 274 273 273 272 271 270 270 270 270 270 270 271 271 271 271
286 285 284 284 283 283 282 281 280 280 279 279 279 278 277 277 276 276 276 275 275 275 274 274 274 274 274 273 273 273 272 270 270 270 271 271 271 271 271 271 272 272
286 285 284 284 283 282 281 280 280 279 279 279 279 278 277 276 276 276 275 275 275 274 274 274 274 274 273 273 273 273 271 270 270 271 271 271 271 271 272 272 273 273
285 284 284 283 283 282 280 280 279 279 279 279 278 278 277 276 276 275 275 274 274 274 274 273 273 273 273 273 273 272 271 270 271 271 271 272 272 272 273 273 273 273
Wind_Speed
23 22 22 22 21 20 18 17 17 16 17 16 16 16 16 16 16 16 17 17 17 18 18 19 19 19 19 19 19 19 19 18 18 18 18 17 16 17 17 16 15 15
21 21 21 21 20 19 18 17 17 16 16 16 16 16 16 16 17 17 18 18 18 19 19 20 20 20 20 20 20 19 19 19 19 19 19 18 17 17 17 17 16 16
21 20 20 20 19 18 17 17 16 16 15 15 15 14 14 15 15 16 16 16 17 17 17 17 18 18 18 18 19 19 19 19 19 19 19 18 17 18 18 17 17 17
20 20 19 18 18 17 16 15 15 14 14 14 13 13 13 13 13 13 14 15 15 15 16 16 16 17 17 17 18 18 18 18 18 19 19 18 17 18 19 17 17 17
19 18 18 17 15 14 13 13 13 12 12 12 12 12 12 12 12 12 13 14 14 15 15 16 16 16 17 17 17 17 17 17 18 18 18 18 18 18 19 19 19 19
18 17 16 14 13 12 11 11 10 10 10 10 10 11 11 11 11 11 12 13 14 14 15 15 16 16 17 17 17 17 17 16 17 17 18 17 18 18 19 20 20 20
17 15 14 12 10 9 9 8 8 7 8 8 8 9 10 10 10 11 12 13 14 14 15 16 16 16 17 17 16 16 16 16 16 17 17 17 17 18 18 19 20 19
15 14 12 10 8 7 6 6 5 6 6 7 8 9 10 10 11 12 13 14 14 15 15 16 16 16 16 16 15 15 15 16 16 16 16 16 17 17 17 18 18 18
14 12 10 8 7 5 4 4 4 5 6 8 9 10 10 11 12 12 13 14 15 15 15 15 15 15 15 15 15 15 15 15 15 16 16 16 16 17 17 18 18 17
14 12 9 8 6 5 3 3 4 5 6 8 9 10 11 11 12 13 13 14 14 14 14 14 14 14 14 14 14 14 15 15 15 16 16 16 17 16 17 17 16 15
14 12 10 8 7 4 3 2 3 4 6 8 9 10 11 11 12 12 13 13 13 13 13 13 13 14 13 14 14 14 15 15 16 16 16 16 16 16 17 16 14 14
14 13 11 9 7 5 3 1 2 4 7 8 9 9 10 10 11 12 12 12 12 12 12 12 13 13 13 13 14 14 14 15 16 16 16 17 16 16 16 15 14 14
15 14 12 10 8 6 3 1 2 5 7 8 8 9 10 10 11 11 11 11 11 11 11 12 12 12 12 13 13 14 14 15 15 15 16 16 16 15 15 14 14 14
17 16 13 11 9 7 4 2 2 5 6 8 9 9 10 10 11 11 11 12 11 11 11 11 11 11 12 12 13 13 14 15 15 15 15 15 14 14 14 14 14 13
19 17 15 13 11 8 5 3 3 4 6 8 9 10 10 11 11 11 11 11 11 11 10 10 11 11 11 12 12 13 13 14 14 14 14 13 13 13 13 13 12 13
20 18 16 15 12 10 6 4 4 4 6 9 10 11 11 11 11 11 11 11 11 10 10 10 11 11 11 11 11 11 12 12 12 12 12 12 12 12 12 12 12 14
22 20 18 17 14 11 8 6 5 5 7 9 10 11 12 12 11 11 11 11 11 10 10 10 10 11 11 11 11 10 10 11 12 11 11 11 12 11 10 12 14 15
24 22 20 18 15 12 10 7 6 6 8 10 11 12 12 12 12 11 11 12 12 11 10 10 10 11 11 11 11 10 10 10 12 12 11 11 11 10 10 12 15 16
26 24 22 20 16 13 11 9 8 8 9 10 12 12 13 13 12 12 11 12 12 11 11 11 10 11 12 11 11 11 10 10 11 12 11 12 11 10 10 11 13 15
27 25 23 21 17 15 12 11 10 10 10 11 12 12 13 13 13 12 12 12 12 12 11 11 11 11 12 12 12 11 10 10 11 13 13 13 12 10 10 10 12 14
28 27 25 22 19 16 14 13 11 11 11 12 12 13 13 13 13 13 12 12 12 13 12 11 11 11 13 13 12 11 10 11 13 14 13 13 12 11 11 11 12 13
29 28 26 23 20 18 16 14 13 12 12 12 13 13 14 14 14 13 13 12 12 13 14 12 11 12 13 13 12 11 11 12 13 13 12 11 11 12 12 12 12 13
30 29 27 24 22 19 17 15 14 13 13 13 13 14 14 14 14 14 13 13 13 13 14 14 12 12 13 13 12 11 11 12 12 11 10 11 12 13 13 13 14 15
31 30 28 25 23 20 18 16 15 14 14 14 14 15 15 15 15 15 14 14 14 13 14 15 14 12 13 14 12 11 11 11 10 10 10 12 13 13 14 16 19 21
32 30 28 26 23 20 18 17 16 15 14 14 15 16 16 15 16 16 15 14 14 14 14 15 15 14 13 14 12 11 10 9 9 10 11 13 14 16 19 21 22 22
32 30 29 27 24 21 19 18 17 16 15 15 16 16 17 17 16 17 17 15 14 13 14 15 16 15 13 13 12 11 9 8 9 10 12 14 16 18 20 20 19 18
Wind_Direction
118 115 111 107 104 100 97 93 89 83 78 74 68 64 58 53 49 46 44 41 39 37 34 33 30 28 27 25 23 23 21 18 17 16 15 14 11 8 5 2 1 357
116 113 109 105 102 98 93 88 82 75 70 65 60 54 47 43 38 36 33 31 28 26 24 22 20 19 19 17 16 17 16 13 13 12 10 10 8 5 3 360 357 354
117 112 108 104 100 94 89 82 76 70 64 58 53 46 40 35 31 28 25 23 22 20 18 17 15 14 13 11 12 12 11 9 8 8 7 5 2 1 1 357 353 350
118 113 108 103 98 93 87 82 76 69 63 56 50 42 35 30 25 22 20 18 18 17 16 14 13 12 10 10 11 11 9 7 5 4 5 2 358 356 356 354 349 346
121 115 110 104 99 95 89 83 76 68 60 52 45 38 32 26 21 18 17 16 16 15 14 13 11 10 9 8 9 8 6 4 0 359 1 359 355 353 351 351 348 344
126 120 115 109 104 98 91 82 73 64 56 48 40 34 29 23 19 17 15 14 13 12 11 9 7 6 4 4 4 3 1 358 355 354 356 354 351 349 347 346 345 343
132 127 122 118 111 102 91 81 72 64 56 48 38 31 25 21 18 14 12 10 9 8 6 4 3 1 360 360 359 357 355 353 351 351 352 350 348 347 345 343 342 340
141 136 132 128 122 110 98 89 79 67 54 42 31 23 18 14 11 8 6 4 3 2 1 0 359 358 358 357 356 354 352 350 350 349 349 347 346 345 342 342 341 338
151 148 145 141 136 130 119 102 79 57 42 30 21 14 9 6 3 1 359 359 359 359 359 358 356 355 355 353 352 351 349 348 347 345 345 344 343 341 341 342 340 336
162 160 160 162 162 159 136 98 61 41 26 15 10 4 0 357 355 354 354 354 355 356 355 354 352 350 349 348 347 345 344 343 342 342 342 342 341 340 339 339 336 331
173 173 178 184 183 174 143 94 43 22 10 4 0 355 352 350 348 348 349 350 350 350 351 348 346 345 344 343 341 340 340 338 339 340 340 340 339 337 338 336 331 325
181 186 195 197 194 188 177 138 12 4 358 355 351 347 345 343 342 342 343 344 344 345 346 343 341 341 338 338 337 335 336 336 338 338 336 337 336 332 333 330 324 320
190 199 205 204 202 201 202 238 343 352 350 346 342 340 338 336 336 336 336 337 339 340 341 339 338 336 334 334 333 332 333 334 335 334 331 333 331 325 325 324 318 315
200 208 211 209 210 211 218 250 329 343 339 336 334 332 331 330 329 330 330 331 333 335 337 336 334 332 331 330 330 331 332 332 331 330 327 326 322 317 316 315 310 307
208 213 214 215 216 217 225 253 305 326 327 327 327 325 323 323 322 323 324 324 327 330 332 332 329 328 328 327 328 330 330 327 324 322 319 316 312 308 307 304 300 299
213 215 217 219 219 220 230 249 277 308 318 318 318 316 316 315 315 317 318 318 321 325 328 330 327 324 324 324 326 328 324 318 311 306 305 303 302 301 300 300 298 297
215 217 220 221 219 222 232 244 265 293 305 308 309 309 308 309 309 311 313 313 317 322 326 328 324 319 320 321 320 320 317 310 301 295 293 292 294 296 297 300 301 301
217 219 221 222 220 223 233 242 259 279 292 297 300 300 301 303 304 307 310 311 314 319 323 324 321 316 314 314 314 315 314 306 297 292 289 288 291 292 294 300 303 303
219 221 221 222 221 225 233 240 253 268 281 288 291 294 295 297 299 303 307 308 310 315 318 318 317 312 309 310 311 311 312 306 295 289 285 285 287 288 291 296 299 302
220 221 221 221 222 226 233 239 249 261 272 279 284 288 290 293 296 300 302 305 306 309 312 315 314 308 307 309 309 309 311 304 291 285 285 286 286 285 287 290 293 296
219 220 220 221 223 227 233 238 246 256 265 273 279 284 287 290 293 296 298 301 304 305 308 312 312 307 305 307 307 308 308 297 288 289 289 288 285 283 283 286 289 291
219 219 219 220 223 227 232 238 245 252 261 269 276 281 285 287 290 294 298 300 302 304 306 309 311 305 302 305 307 307 303 296 294 295 290 284 283 283 284 284 286 288
218 219 219 220 223 227 232 237 243 249 258 267 274 279 282 285 289 293 296 300 302 303 304 307 309 305 302 304 306 304 301 299 297 291 283 282 283 283 284 284 286 291
219 219 220 221 225 228 232 237 242 248 257 266 273 278 281 285 290 292 295 299 301 302 303 305 308 307 304 304 303 300 298 297 292 285 282 285 285 285 286 290 295 301
219 219 220 222 226 229 231 235 242 248 257 266 271 277 281 284 288 291 293 296 297 300 302 302 305 308 304 302 301 297 296 292 285 281 283 285 287 290 295 299 303 305
219 219 220 223 226 229 231 235 242 248 256 264 269 274 279 283 286 288 290 293 295 298 299 300 302 304 302 300 298 296 293 287 281 280 282 286 291 295 299 302 302 301